DW3195 Weather Reports


time (UTC)temp
F
wind
direction
speed
knots
gust
knots
rain 1hr
in
rain 24hr
in
rain mn
in
humidity
%
barometer
mb
20260503021505 34 43 0.0 0.9 0.00 0.00 0.00 86 923.9
20260503021005 35 188 0.9 1.7 0.00 0.00 0.00 86 923.9
20260503020504 35 323 0.0 1.7 0.00 0.00 0.00 86 923.9
20260503020004 35 109 0.0 1.7 0.00 0.00 0.00 85 923.8
20260503014505 36 141 0.9 1.7 0.00 0.00 0.00 84 923.9
20260503014004 36 48 0.0 0.9 0.00 0.00 0.00 83 923.9
20260503013505 36 37 0.9 1.7 0.00 0.00 0.00 83 923.8
20260503013005 37 61 1.7 2.6 0.00 0.00 0.00 82 923.7
20260503011504 38 351 0.9 2.6 0.00 0.00 0.00 80 923.6
20260503011005 39 28 0.0 1.7 0.00 0.00 0.00 77 923.5
20260503010504 39 2 0.9 1.7 0.00 0.00 0.00 76 923.4
20260503004504 42 8 1.7 4.3 0.00 0.00 0.00 68 923.2
20260503004004 43 49 1.7 2.6 0.00 0.00 0.00 69 923.3
20260503003004 44 65 0.0 4.3 0.00 0.00 0.00 62 923.2
20260503001504 44 320 2.6 6.1 0.00 0.00 0.00 61 923.1
20260503000505 45 268 1.7 5.2 0.00 0.00 0.00 59 922.9
20260503000005 45 351 1.7 6.1 0.00 0.00 0.00 59 923.0
20260502234506 46 231 1.7 4.3 0.00 0.00 0.00 57 922.8
20260502234005 46 270 1.7 4.3 0.00 0.00 0.00 57 922.8
20260502233506 47 300 2.6 7.8 0.00 0.00 0.00 56 922.8
20260502233006 47 253 2.6 7.0 0.00 0.00 0.00 56 922.7
20260502231505 48 38 0.9 5.2 0.00 0.00 0.00 54 922.6
20260502231005 48 301 1.7 6.1 0.00 0.00 0.00 54 922.6
20260502230506 48 223 3.5 7.0 0.00 0.00 0.00 54 922.7
20260502224505 47 258 2.6 6.1 0.00 0.00 0.00 54 922.6
20260502224006 47 187 3.5 7.0 0.00 0.00 0.00 54 922.5
20260502223505 48 274 1.7 8.7 0.00 0.00 0.00 54 922.5
20260502223006 48 245 2.6 10.4 0.00 0.00 0.00 54 922.5
20260502221506 48 257 2.6 10.4 0.00 0.00 0.00 53 922.4
20260502221006 48 250 1.7 5.2 0.00 0.00 0.00 55 922.4
20260502220005 48 162 2.6 10.4 0.00 0.00 0.00 55 922.4
20260502214505 49 264 0.9 5.2 0.00 0.00 0.00 54 922.1
20260502213505 49 267 2.6 5.2 0.00 0.00 0.00 53 922.1
20260502213005 48 288 3.5 6.1 0.00 0.00 0.00 53 922.0
20260502211505 48 293 2.6 7.8 0.00 0.00 0.00 54 922.0
20260502211005 48 299 2.6 7.8 0.00 0.00 0.00 54 922.0
20260502210005 49 254 2.6 8.7 0.00 0.00 0.00 54 921.9
20260502204505 49 213 2.6 6.1 0.00 0.00 0.00 52 922.0
20260502204005 49 3 1.7 7.0 0.00 0.00 0.00 54 922.0
20260502203506 49 226 2.6 5.2 0.00 0.00 0.00 53 922.0
20260502201505 49 302 3.5 7.0 0.00 0.00 0.00 51 922.2
20260502201005 49 259 1.7 7.0 0.00 0.00 0.00 52 922.1
20260502200505 49 240 2.6 7.0 0.00 0.00 0.00 53 922.3
20260502200005 49 233 4.3 12.2 0.00 0.00 0.00 52 922.2
20260502194005 49 266 3.5 7.8 0.00 0.00 0.00 51 922.3
20260502193505 49 50 2.6 7.0 0.00 0.00 0.00 52 922.4
20260502193005 49 311 3.5 8.7 0.00 0.00 0.00 52 922.4
20260502191505 50 255 2.6 8.7 0.00 0.00 0.00 50 922.4
20260502191005 51 314 4.3 11.3 0.00 0.00 0.00 50 922.4
20260502190505 51 330 4.3 7.8 0.00 0.00 0.00 49 922.4
20260502190005 51 265 2.6 7.8 0.00 0.00 0.00 48 922.3
20260502184005 51 297 2.6 7.8 0.00 0.00 0.00 49 922.4
20260502183505 52 236 2.6 8.7 0.00 0.00 0.00 47 922.5
20260502183005 52 294 3.5 8.7 0.00 0.00 0.00 49 922.5
20260502181504 51 294 3.5 7.0 0.00 0.00 0.00 50 922.5
20260502181005 51 289 1.7 7.8 0.00 0.00 0.00 51 922.6
20260502180504 51 277 3.5 6.1 0.00 0.00 0.00 50 922.6
20260502170505 51 271 4.3 10.4 0.00 0.00 0.00 49 922.8
20260502164004 52 267 1.7 6.1 0.00 0.00 0.00 50 922.8
20260502163004 52 266 5.2 8.7 0.00 0.00 0.00 48 922.9
20260502161004 51 28 3.5 7.0 0.00 0.00 0.00 50 923.1
20260502160505 51 340 4.3 8.7 0.00 0.00 0.00 50 923.0
20260502151504 50 294 1.7 6.1 0.00 0.00 0.00 52 923.4
20260502151004 50 292 4.3 7.8 0.00 0.00 0.00 52 923.3
20260502130505 42 94 0.9 2.6 0.00 0.00 0.00 70 923.4
20260502123505 41 170 0.9 4.3 0.00 0.00 0.00 75 923.4
20260502123005 40 100 0.9 4.3 0.00 0.00 0.00 76 923.4
20260502121505 39 144 0.9 2.6 0.00 0.00 0.00 81 923.4
20260502120505 38 158 0.0 1.7 0.00 0.00 0.00 90 923.4
20260502114005 35 110 0.0 0.9 0.00 0.00 0.00 94 923.3
20260502113005 34 345 0.0 1.7 0.00 0.00 0.00 94 923.3
20260502111505 33 36 0.0 0.9 0.00 0.00 0.00 93 923.2
20260502111005 33 323 0.0 0.9 0.00 0.00 0.00 92 923.1
20260502110004 33 39 0.0 0.9 0.00 0.00 0.00 92 923.1
20260502104505 34 37 0.0 1.7 0.00 0.00 0.00 91 923.0
20260502104005 34 337 0.0 1.7 0.00 0.00 0.00 91 923.0
20260502103005 35 32 0.9 1.7 0.00 0.00 0.00 89 922.7
20260502101504 36 35 0.9 1.7 0.00 0.00 0.00 89 922.8
20260502101004 36 356 0.9 2.6 0.00 0.00 0.00 88 923.0
20260502100505 36 325 1.7 2.6 0.00 0.00 0.00 90 923.1
20260502091505 40 26 0.9 1.7 0.00 0.00 0.00 81 923.3
20260502091005 40 24 0.0 1.7 0.00 0.00 0.00 79 923.4
20260502090505 41 64 0.0 1.7 0.00 0.00 0.00 79 923.4
20260502071504 43 246 0.9 4.3 0.00 0.00 0.00 73 923.0
20260502071004 44 245 0.0 1.7 0.00 0.00 0.00 73 923.1
20260502070504 44 262 0.9 1.7 0.00 0.00 0.00 72 923.1
20260502070004 44 340 0.0 2.6 0.00 0.00 0.00 73 923.0
20260502064504 44 336 0.9 2.6 0.00 0.00 0.00 72 923.2
20260502063504 44 310 0.0 2.6 0.00 0.00 0.00 72 923.2
20260502063004 44 294 0.9 2.6 0.00 0.00 0.00 71 923.4
20260502061504 45 290 1.7 4.3 0.00 0.00 0.00 71 923.4
20260502060505 45 284 0.9 4.3 0.00 0.00 0.00 75 923.4
20260502054005 46 37 1.7 4.3 0.00 0.00 0.00 78 923.5
20260502053005 46 340 1.7 4.3 0.00 0.00 0.00 78 923.4
20260502051505 46 282 2.6 5.2 0.00 0.00 0.00 76 923.3
20260502051005 46 272 0.9 5.2 0.00 0.00 0.00 76 923.3
20260502050005 46 304 1.7 5.2 0.00 0.00 0.00 75 923.3
20260502044005 47 310 0.9 2.6 0.00 0.00 0.00 74 923.3
20260502043505 47 266 0.0 1.7 0.00 0.00 0.00 75 923.4
20260502043005 47 167 0.0 6.1 0.00 0.00 0.00 74 923.4
20260502041505 47 216 1.7 5.2 0.00 0.00 0.00 73 923.5
20260502041005 47 286 2.6 6.1 0.00 0.00 0.00 72 923.5
20260502040506 47 260 1.7 5.2 0.00 0.00 0.00 73 923.4
20260502040005 47 91 1.7 5.2 0.00 0.00 0.00 74 923.4
20260502034505 48 256 2.6 7.0 0.00 0.00 0.00 72 923.4
20260502034005 48 283 2.6 5.2 0.00 0.00 0.00 72 923.4
20260502033505 48 264 0.9 1.7 0.00 0.00 0.00 72 923.3
20260502033005 48 261 1.7 6.1 0.00 0.00 0.00 72 923.3
20260502031505 49 285 1.7 4.3 0.00 0.00 0.00 71 923.5
20260502031006 49 270 0.9 4.3 0.00 0.00 0.00 70 923.5
20260502030505 49 226 1.7 4.3 0.00 0.00 0.00 70 923.5
20260502023506 50 170 2.6 5.2 0.00 0.00 0.00 70 923.2
20260502023007 50 223 1.7 6.1 0.00 0.00 0.00 71 923.2